Lapse_Rate
5.2 5.5 5.5 5.2 5.2 6.7 6.9 5.9 5.2 6.2 7.3 6.0 5.4 4.2 4.2 3.5 3.8 3.4 3.9 4.0 3.4 3.0
5.5 5.8 5.3 5.5 5.1 7.0 6.9 5.4 4.6 6.2 6.3 5.6 4.8 4.0 3.7 3.7 4.0 3.6 3.6 3.9 3.9 4.0
5.8 5.1 4.8 5.3 5.8 7.0 5.9 5.1 4.0 4.8 5.0 3.9 4.3 4.1 3.7 3.8 3.8 3.9 3.8 4.0 3.8 2.8
5.3 4.7 5.2 5.0 4.8 4.8 3.3 3.8 3.9 4.5 4.4 3.8 4.3 4.3 3.9 3.9 3.5 4.4 3.8 3.3 3.6 3.2
4.8 5.0 5.0 4.9 5.3 5.0 4.5 4.0 3.6 3.6 3.8 3.7 4.8 4.5 4.3 4.2 3.2 4.1 3.7 3.7 3.5 3.0
5.5 5.1 4.7 4.3 5.3 5.0 5.1 4.2 4.5 4.4 3.7 3.5 4.0 4.2 4.5 4.1 4.0 4.0 4.3 3.5 3.2 2.3
4.3 4.2 3.7 4.2 3.7 4.8 5.4 5.1 4.0 4.1 3.9 3.7 3.8 4.2 4.2 4.2 3.8 3.6 2.8 2.9 3.1 2.6
3.9 3.8 3.7 5.3 5.4 5.7 5.8 5.2 4.7 3.9 3.9 3.6 3.6 3.8 3.9 3.6 3.5 3.5 2.9 3.0 3.2 2.2
3.4 3.3 3.3 3.0 3.3 4.7 4.9 4.6 4.2 3.4 3.4 3.3 3.2 1.3 1.7 3.0 3.2 3.3 3.3 3.1 2.8 1.8
2.7 2.6 2.7 2.7 2.7 2.3 2.6 3.3 3.4 3.4 3.6 3.5 2.3 1.0 1.3 1.5 3.5 3.4 3.3 3.1 2.5 1.0
2.9 2.4 2.0 1.7 1.5 1.7 1.7 1.6 2.0 2.1 1.9 2.3 1.4 0.9 1.4 1.0 3.3 2.4 2.8 2.4 1.7 1.6
2.3 2.0 1.9 1.5 1.3 1.0 1.1 0.4 -0.1 -0.2 0.8 1.3 0.7 0.7 0.7 1.2 1.9 2.2 1.0 0.3 1.0 1.8
1.3 1.0 0.8 1.0 0.8 0.7 0.9 0.9 1.0 1.1 0.7 0.4 0.2 -0.1 0.2 0.7 1.0 0.9 -0.0 -0.6 -0.4 0.0
1.2 0.8 0.4 0.3 -0.6 -0.6 -0.1 0.8 0.7 0.7 0.5 0.5 0.0 0.0 0.6 0.7 0.8 1.0 0.6 0.3 -0.5 -0.1
Wind_Speed
16 11 10 11 11 12 14 10 17 22 22 20 18 15 14 11 11 10 10 12 7 5
13 14 10 13 15 14 17 10 6 17 17 17 16 16 16 11 12 11 10 10 10 7
10 11 12 13 18 17 13 16 18 12 14 15 15 16 15 12 12 12 9 8 9 6
12 11 9 4 4 6 10 14 15 15 14 14 16 16 14 13 13 14 10 7 9 9
7 8 8 8 4 4 8 9 13 13 13 13 14 14 14 12 12 14 13 12 10 10
8 8 11 13 10 8 8 11 13 14 14 12 12 11 11 13 13 13 12 11 10 9
2 6 9 15 12 11 11 11 12 12 13 14 13 14 13 13 12 11 9 9 10 10
5 9 9 8 10 12 13 11 11 10 9 11 11 10 14 11 11 11 9 9 10 10
9 12 11 12 9 9 11 9 8 8 9 9 7 12 14 13 10 10 11 10 10 9
14 14 13 12 12 12 7 8 6 6 6 6 5 12 13 14 9 10 12 12 11 8
14 14 14 14 13 13 9 10 6 5 5 3 3 7 11 14 9 8 10 10 11 11
13 14 13 13 12 11 9 11 10 7 8 6 4 3 7 4 1 6 6 4 7 10
12 12 11 9 10 8 7 8 6 6 5 7 6 11 11 7 1 5 3 6 7 9
12 12 11 10 7 8 7 7 7 7 6 6 7 7 10 9 4 3 2 3 5 6
Wind_Direction
223 217 219 221 234 222 211 208 204 191 186 180 182 179 178 180 179 178 182 185 182 183
222 218 220 223 239 231 194 176 170 171 168 173 174 177 176 178 178 178 179 188 191 191
212 217 235 230 215 200 177 163 164 182 176 171 173 181 177 179 177 176 185 187 188 181
201 211 246 286 182 161 142 158 165 168 170 170 178 181 177 178 176 182 179 178 184 194
200 221 225 231 189 177 169 155 160 164 166 169 180 181 173 177 176 184 182 189 187 190
194 238 225 201 192 174 180 173 173 167 168 166 172 174 183 178 186 183 193 185 186 180
344 298 209 187 177 175 177 171 167 170 167 169 173 177 180 184 186 180 175 176 183 180
358 14 58 147 159 165 161 164 160 157 165 166 170 175 175 178 175 177 176 183 191 192
28 44 41 52 66 139 141 140 140 145 152 160 175 173 172 169 179 185 188 194 199 197
39 38 32 37 45 48 69 100 107 130 151 180 170 179 180 179 189 193 198 201 200 193
36 49 45 41 37 39 29 50 40 58 44 116 100 184 206 206 203 196 208 198 196 196
33 37 37 38 33 28 37 41 38 28 18 8 23 76 131 124 227 209 171 177 202 194
38 40 42 41 36 31 39 40 38 38 22 33 20 22 2 348 184 167 179 159 159 182
36 35 24 25 33 35 32 29 26 17 8 13 18 0 350 341 346 334 274 206 188 200